Showing default

GONETS D1 3, 23789

Orbit data source: Space-Track

GONETS D1 3, 23789 is a payload satellite owned by Gonets (CIS) in LEO that was launched on Mon, 19 Feb 1996 UTC via a TSIKLON-3 launch vehicle from the Plesetsk Missile And Space Complex (PKMTR). Payload-class satellites include a variety of spacecraft equipped with specific instruments for various scientific and technological missions. These include communications satellites like Starlink; space stations such as the ISS; scientific satellites like the Hubble; Earth observation satellites from companies like Planet Labs, Umbra, and HawkEye 360; GPS; miniature CubeSats for education and research; and military/defense satellites.

Loading next visibility...
Identifier
23789, 1996-009C
Orbit
LEO
Country
Flag of CISCIS
Related business
Manufacturer
NPO PM
Mission
Non-operational Civil Communications
Bus & Motor
STRELA-3, Unknown motor
Mass
225 kg wet, 225 kg dry
Launch date (UTC)
1996-02-19 (30 years ago)
Launch vehicle
TSIKLON-3
Launch site
Plesetsk Missile And Space Complex (PKMTR)
Object type
Payload
Rocket body
Debris
Shape & HBR
Cyl + 1 Ant, 3.5 m
Radar Cross Section
1.798 m², Medium (>0.1 m² and < 1m²)

Expand to show TLE details & history
Last TLE update: 9 hours ago

TLE from 9 hours ago
0 GONETS D1 3
1 23789U 96009C   25310.79730550  .00000025  00000-0  81993-4 0  9991
2 23789  82.5752 101.8534 0005141 200.2557 159.8331 12.62678464369581
Epoch: 2025-11-06T19:08Z
TLE epoch observation values (Epoch: 2025-11-06T19:08:07.195Z)
Latitude
-0.00001°
Longitude
128.57295°
Altitude
1,418.399 km
Speed
7.15 km/s
True Right ascension
06h 47m 24s
True Declination
0° 00' 00"
Sunlit
Object was in daylight at epoch
Visualization orbit readout
Latitude
Unknown
Longitude
Unknown
Altitude
Unknown
Speed
Unknown
Apparent Right ascension
Unknown
Apparent Declination
Unknown
Sunlit
N/A
Visualization observer readout
Local Sidereal Time
00:11:19
Azimuth
Unknown
Elevation
Unknown
Doppler factor
Unknown
Orbital elements
Apogee altitude
1,413.232 km
Perigee altitude
1,405.225 km
Semi-major axis
7,787.366 km
Eccentricity
0.00051
Inclination
82.5752°
RAAN
101.8534°
Arg. of periapsis
200.2557°
True anomaly
159.8534°
Mean anomaly
159.8331°
Eccentric anomaly
159.84325°
Mean motion
3.15833 °/min
Orbital period
113.98 mins
BSTAR
0.000081993
Loading maneuver chart data...
Computing Atmospheric mass density...
Loading historical data...
Loading historical data...
Loading historical data...
Loading historical data...
Loading historical data...
Loading historical data...
Loading historical data...

Documentation

Showing up to 5 results
|